• In Netherlands
  • List of Countries
  • For 7 days
  • Water Temperature
  • Satellite Maps
  • Weather Map
  • Weather Widgets
  • user-avatar
    Login

    Hourly Weather Gold Coast

    Today, 21 September, Thursday

    Time Temperature Precipitation Wind Pressure Humidity
    00:00 +18°C° 0 mm 1 mps 760 mmHg 86%
    01:00 +18°C° 0 mm 1 mps 760 mmHg 85%
    02:00 +18°C° 0 mm 1 mps 760 mmHg 85%
    03:00 +18°C° 0 mm 1 mps 760 mmHg 86%
    04:00 +16°C° 0 mm 1 mps 760 mmHg 86%
    05:00 +18°C° 0 mm 1 mps 760 mmHg 83%
    06:00 +19°C° 0 mm 1 mps 760 mmHg 81%
    07:00 +19°C° 0 mm 1 mps 760 mmHg 78%
    08:00 +21°C° 0 mm 1 mps 760 mmHg 69%
    09:00 +23°C° 0 mm 2 mps 760 mmHg 60%
    10:00 +25°C° 0 mm 2 mps 760 mmHg 50%
    11:00 +26°C° 0 mm 3 mps 760 mmHg 48%
    12:00 +27°C° 0 mm 3 mps 759 mmHg 46%
    13:00 +28°C° 0 mm 4 mps 758 mmHg 44%
    14:00 +28°C° 0 mm 4 mps 758 mmHg 46%
    15:00 +27°C° 0 mm 5 mps 758 mmHg 49%
    16:00 +27°C° 0 mm 5 mps 757 mmHg 52%
    17:00 +25°C° 0 mm 5 mps 758 mmHg 62%
    18:00 +22°C° 0 mm 5 mps 758 mmHg 73%
    19:00 +20°C° 0 mm 5 mps 758 mmHg 84%
    20:00 +20°C° 0 mm 5 mps 759 mmHg 85%
    21:00 +20°C° 0 mm 4 mps 759 mmHg 87%
    22:00 +19°C° 0 mm 4 mps 759 mmHg 88%
    23:00 +20°C° 0 mm 4 mps 759 mmHg 89%

    Tomorrow, 22 September, Friday

    Time Temperature Precipitation Wind Pressure Humidity
    00:00 +20°C° 0 mm 4 mps 759 mmHg 89%
    01:00 +20°C° 0 mm 4 mps 759 mmHg 90%
    02:00 +20°C° 0.1 mm 4 mps 759 mmHg 91%
    03:00 +19°C° 0.1 mm 4 mps 759 mmHg 93%
    04:00 +19°C° 0.1 mm 4 mps 759 mmHg 94%
    05:00 +20°C° 0.2 mm 4 mps 759 mmHg 92%
    06:00 +20°C° 0.2 mm 4 mps 760 mmHg 90%
    07:00 +21°C° 0.2 mm 4 mps 760 mmHg 87%
    08:00 +23°C° 0 mm 4 mps 760 mmHg 75%
    09:00 +26°C° 0 mm 5 mps 760 mmHg 63%
    10:00 +28°C° 0 mm 5 mps 760 mmHg 51%
    11:00 +29°C° 0 mm 5 mps 759 mmHg 46%
    12:00 +30°C° 0 mm 5 mps 758 mmHg 41%
    13:00 +33°C° 0 mm 6 mps 758 mmHg 36%
    14:00 +30°C° 0 mm 6 mps 757 mmHg 43%
    15:00 +29°C° 0 mm 6 mps 757 mmHg 49%
    16:00 +27°C° 0 mm 6 mps 756 mmHg 55%
    17:00 +26°C° 0.4 mm 6 mps 757 mmHg 66%
    18:00 +23°C° 0.4 mm 6 mps 757 mmHg 76%
    19:00 +21°C° 0.4 mm 6 mps 757 mmHg 86%
    20:00 +21°C° 0 mm 6 mps 758 mmHg 86%
    21:00 +21°C° 0 mm 6 mps 758 mmHg 87%
    22:00 +21°C° 0 mm 6 mps 759 mmHg 87%
    23:00 +21°C° 0 mm 6 mps 758 mmHg 87%

    Day after tomorrow, 23 September, Saturday

    Time Temperature Precipitation Wind Pressure Humidity
    00:00 +20°C° 0 mm 6 mps 758 mmHg 87%
    01:00 +20°C° 0 mm 6 mps 758 mmHg 87%
    02:00 +20°C° 0 mm 6 mps 758 mmHg 87%
    03:00 +19°C° 0 mm 6 mps 758 mmHg 88%
    04:00 +19°C° 0 mm 6 mps 758 mmHg 88%
    05:00 +19°C° 0 mm 6 mps 758 mmHg 85%
    06:00 +20°C° 0 mm 6 mps 758 mmHg 82%
    07:00 +20°C° 0 mm 6 mps 759 mmHg 78%
    08:00 +23°C° 0 mm 6 mps 759 mmHg 67%
    09:00 +26°C° 0 mm 6 mps 758 mmHg 55%
    10:00 +29°C° 0 mm 6 mps 758 mmHg 43%
    11:00 +32°C° 0 mm 6 mps 757 mmHg 37%
    12:00 +33°C° 0 mm 6 mps 756 mmHg 32%
    13:00 +35°C° 0 mm 7 mps 755 mmHg 27%
    14:00 +34°C° 0 mm 7 mps 755 mmHg 31%
    15:00 +34°C° 0 mm 7 mps 755 mmHg 34%
    16:00 +33°C° 0 mm 8 mps 754 mmHg 38%
    17:00 +29°C° 0 mm 7 mps 755 mmHg 49%
    18:00 +27°C° 0 mm 7 mps 755 mmHg 60%
    19:00 +24°C° 0 mm 7 mps 755 mmHg 72%
    20:00 +23°C° 0 mm 7 mps 756 mmHg 71%
    21:00 +23°C° 0 mm 7 mps 756 mmHg 71%
    22:00 +23°C° 0 mm 6 mps 756 mmHg 70%
    23:00 +22°C° 0 mm 6 mps 756 mmHg 67%

    24 September, Sunday

    Time Temperature Precipitation Wind Pressure Humidity
    00:00 +22°C° 0 mm 6 mps 756 mmHg 65%
    01:00 +22°C° 0 mm 6 mps 755 mmHg 62%
    02:00 +22°C° 0 mm 6 mps 755 mmHg 62%
    03:00 +21°C° 0 mm 6 mps 755 mmHg 61%
    04:00 +21°C° 0 mm 5 mps 755 mmHg 61%
    05:00 +22°C° 0 mm 6 mps 755 mmHg 57%
    06:00 +23°C° 0 mm 6 mps 755 mmHg 53%
    07:00 +23°C° 0 mm 6 mps 756 mmHg 50%
    08:00 +28°C° 0 mm 6 mps 756 mmHg 41%
    09:00 +32°C° 0 mm 7 mps 755 mmHg 32%
    10:00 +35°C° 0 mm 7 mps 755 mmHg 24%
    11:00 +36°C° 0 mm 7 mps 755 mmHg 21%
    12:00 +39°C° 0 mm 8 mps 754 mmHg 19%
    13:00 +40°C° 0 mm 8 mps 753 mmHg 16%
    14:00 +40°C° 0 mm 8 mps 753 mmHg 18%
    15:00 +39°C° 0 mm 8 mps 752 mmHg 20%
    16:00 +38°C° 0 mm 9 mps 752 mmHg 22%
    17:00 +35°C° 0 mm 8 mps 753 mmHg 25%
    18:00 +33°C° 0 mm 7 mps 753 mmHg 29%
    19:00 +30°C° 0 mm 7 mps 754 mmHg 32%
    20:00 +29°C° 0 mm 7 mps 754 mmHg 36%
    21:00 +28°C° 0 mm 7 mps 755 mmHg 39%
    22:00 +26°C° 0 mm 7 mps 755 mmHg 43%
    23:00 +26°C° 0 mm 6 mps 755 mmHg 44%

    25 September, Monday

    Time Temperature Precipitation Wind Pressure Humidity
    00:00 +26°C° 0 mm 6 mps 754 mmHg 45%
    01:00 +24°C° 0 mm 6 mps 754 mmHg 46%
    02:00 +24°C° 0 mm 6 mps 754 mmHg 46%
    03:00 +24°C° 0 mm 6 mps 754 mmHg 45%
    04:00 +24°C° 0 mm 6 mps 754 mmHg 45%
    05:00 +24°C° 0 mm 6 mps 754 mmHg 42%
    06:00 +26°C° 0 mm 6 mps 755 mmHg 40%
    07:00 +27°C° 0 mm 6 mps 756 mmHg 37%
    08:00 +30°C° 0 mm 6 mps 756 mmHg 31%
    09:00 +34°C° 0 mm 6 mps 756 mmHg 24%
    10:00 +38°C° 0 mm 6 mps 756 mmHg 17%
    11:00 +38°C° 0 mm 6 mps 755 mmHg 17%
    12:00 +39°C° 0 mm 6 mps 754 mmHg 17%
    13:00 +40°C° 0 mm 6 mps 754 mmHg 17%
    14:00 +38°C° 0 mm 6 mps 753 mmHg 20%
    15:00 +36°C° 0 mm 6 mps 753 mmHg 23%
    16:00 +35°C° 0 mm 6 mps 753 mmHg 26%
    17:00 +33°C° 0 mm 6 mps 753 mmHg 30%
    18:00 +32°C° 0 mm 6 mps 754 mmHg 35%
    19:00 +29°C° 0 mm 5 mps 754 mmHg 39%
    20:00 +28°C° 0 mm 5 mps 755 mmHg 40%
    21:00 +28°C° 0 mm 4 mps 755 mmHg 42%
    22:00 +27°C° 0 mm 3 mps 755 mmHg 43%
    23:00 +26°C° 0 mm 3 mps 755 mmHg 44%

    26 September, Tuesday

    Time Temperature Precipitation Wind Pressure Humidity
    00:00 +26°C° 0 mm 4 mps 755 mmHg 46%
    01:00 +25°C° 0 mm 4 mps 755 mmHg 48%
    02:00 +25°C° 0 mm 4 mps 755 mmHg 47%
    03:00 +25°C° 0 mm 4 mps 755 mmHg 46%
    04:00 +24°C° 0 mm 3 mps 755 mmHg 45%
    05:00 +25°C° 0 mm 4 mps 755 mmHg 44%
    06:00 +25°C° 0 mm 4 mps 756 mmHg 43%
    07:00 +26°C° 0 mm 5 mps 756 mmHg 42%
    08:00 +28°C° 0 mm 4 mps 756 mmHg 37%
    09:00 +30°C° 0 mm 4 mps 756 mmHg 31%
    10:00 +33°C° 0 mm 4 mps 756 mmHg 25%
    11:00 +35°C° 0 mm 4 mps 755 mmHg 23%
    12:00 +37°C° 0 mm 4 mps 755 mmHg 21%
    13:00 +39°C° 0 mm 5 mps 754 mmHg 19%
    14:00 +37°C° 0 mm 5 mps 754 mmHg 23%
    15:00 +36°C° 0 mm 5 mps 754 mmHg 26%
    16:00 +35°C° 0 mm 5 mps 754 mmHg 29%
    17:00 +32°C° 0 mm 5 mps 754 mmHg 37%
    18:00 +29°C° 0 mm 4 mps 755 mmHg 45%
    19:00 +27°C° 0 mm 3 mps 756 mmHg 52%
    20:00 +26°C° 0 mm 4 mps 756 mmHg 61%
    21:00 +25°C° 0 mm 4 mps 756 mmHg 70%
    22:00 +23°C° 0 mm 4 mps 757 mmHg 78%
    23:00 +22°C° 0 mm 4 mps 757 mmHg 80%
    Show more